Погода в Лоухи

Россия / Республика Карелия     66°04′28″N   33°02′38″E
темп.,
°C
ветер,
м/с
пор.,
м/с
влажн.,
%
обл.,
%
осадки,
мм/ч
давл.,
гПа
погр.,
м
25 июля, вс
вс2500:00+13з4964100 0.0 1010459
03:00+12з4108070 0.0 1010434
06:00+13зсз387789 0.0 1010552
09:00+15ссз575877 0.1 10111499
12:00+17сз58435 0.0 10131643
15:00+18сз594699 0.0 10141974
18:00+17сз3555100 0.0 1014924
21:00+14зсз2370100 0.0 101482
26 июля, пн
пн2600:00+13зсз267497 0.0 1015202
03:00+13зсз2780100 0.0 1016267
06:00+13сз2777100 0.0 1016401
09:00+17ссз4660100 0.0 10171239
12:00+18ссз465584 0.0 10181450
15:00+18ссз575072 0.0 10191544
18:00+18ссз475088 0.0 10191237
21:00+15св245753 0.0 1020122
27 июля, вт
вт2700:00+11в116425 0.0 102110
03:00+9юз11685 0.0 102210
06:00+12з015943 0.0 102264
09:00+18зюз124511 0.0 1020653
12:00+21з24435 0.0 10191233
15:00+24з344046 0.0 10171640
18:00+23зюз234548 0.0 1016626
21:00+18ю22701 0.4 101431
28 июля, ср
ср2800:00+15юз258564 0.8 101274
03:00+14зсз378836 1.1 1011125
06:00+16зсз388436 0.1 1009217
09:00+18ссв347476 0.1 1009536
12:00+21св335623 0.0 10091073
15:00+22ссв325031 0.0 10081388
18:00+21всв43535 0.1 1007944
21:00+17в366538 0.1 1006324
29 июля, чт
чт2900:00+12ююв258576 0.0 1006155
03:00+13ююв137584 0.0 1003158
06:00+13вюв237197 0.0 1001242
09:00+14всв1269100 0.0 999365
12:00+16всв226210 0.0 998614
15:00+21ссв224897 0.0 9961651
18:00+17св2461100 0.0 994354
21:00+13св367038 0.0 994309